Regional Weather Roundup
Issued by NWS

Home | Current Version | Previous Version | Text Only | Print | Product List | Glossary On
Versions: 1 2 3 4 5 6 7 8 9 10 11 12 13 14 15 16 17 18 19 20 21 22 23 24 25 26 27 28 29 30 31 32 33 34 35 36 37 38 39 40 41 42 43 44 45 46 47 48 49 50
000
ASUS43 KLSX 080407
RWRMO

WEATHER SUMMARY FOR MISSOURI
NATIONAL WEATHER SERVICE SPRINGFIELD MO
1100 PM CDT TUE JUL 07 2015

NOTE: "FAIR" INDICATES FEW OR NO CLOUDS BELOW 12,000 FEET WITH NO
       SIGNIFICANT WEATHER AND/OR OBSTRUCTIONS TO VISIBILITY.
       CURRENT SKY AND/OR WEATHER CONDITIONS ARE NOT AVAILABLE FOR
       CHILLICOTHE AND FARMINGTON.

MOZ001>031-035>038-043-044-053-054-080500-
...NORTHERN AND WESTERN MISSOURI...

CITY           SKY/WX    TMP DP  RH WIND       PRES   REMARKS
KANSAS CTY INT CLOUDY    67  60  78 NE8       30.07R
KANSAS C DTWN  CLOUDY    70  60  70 E7        30.06R
LEE`S SUMMIT   LGT RAIN  66  62  87 CALM      30.08R
ST JOSEPH      CLOUDY    66  58  75 E5        30.08R
CHILLICOTHE      N/A     68  60  75 N3        30.09R
KIRKSVILLE     CLOUDY    64  60  87 NE3       30.10R

$$
MOZ066>068-077>081-088>096-101>105-080500-
...SOUTHWEST MISSOURI...

CITY           SKY/WX    TMP DP  RH WIND       PRES   REMARKS
SPRINGFIELD    LGT RAIN  67  66  97 E5        30.04R FOG
JOPLIN         CLOUDY    65  64  97 NE6       30.03F FOG

$$
MOZ032>034-039>042-045>050-055>058-069>072-080500-
...CENTRAL MISSOURI...

CITY           SKY/WX    TMP DP  RH WIND       PRES   REMARKS
COLUMBIA       LGT RAIN  65  64  97 E6        30.08R FOG
JEFFERSON CITY CLOUDY    66  63  90 NE5       30.07R FOG
ROLLA          CLOUDY    64  63  96 E12       30.05S
SEDALIA        LGT RAIN  67  64  90 E9        30.08R FOG
WARRENSBURG    DRIZZLE   64  63  94 CALM      30.07S
OSAGE BEACH    CLOUDY    64  63  94 NE6       30.06R

$$
MOZ051-052-059>065-080500-
...EAST CENTRAL MISSOURI...

CITY           SKY/WX    TMP DP  RH WIND       PRES   REMARKS
ST LOUIS INTL  LGT RAIN  66  63  88 SE5       30.08S FOG
SPIRIT OF STL  CLOUDY    64  64 100 CALM      30.07R
ST CHARLES     CLOUDY    68  64  87 E6        30.06R

$$
MOZ072>076-082>087-097>100-106>115-080500-
...SOUTH CENTRAL AND SOUTHEAST MISSOURI...

CITY           SKY/WX    TMP DP  RH WIND       PRES   REMARKS
CAPE GIRARDEAU CLOUDY    73  72  96 SW6       30.03S
FARMINGTON     CLOUDY    66  64  94 N3        30.10R
POPLAR BLUFF   CLOUDY    74  72  93 S3        30.02S
WEST PLAINS    CLOUDY    72  69  90 CALM      30.06S

$$



USA.gov is the U.S. government's official web portal to all federal, state and local government web resources and services.